Location: Nelson
(38.9945°N, 93.0321°W)
Time: 15:43:39
(UTC+00:00)

ACS3 Solar Sail - Pass Details

Date: 27 June 2024
Orbit: 993 x 1023 km, 97.4° (Epoch: 19 July)

Event Time Altitude Azimuth Distance (km) Brightness Sun altitude
Exits shadow 04:50:51 17° 227° (SW) 2,308 6.5 -24.6°
Maximum altitude 04:54:08 25° 268° (W) 1,886 6.4 -24.9°
Drops below altitude 10° 04:59:09 10° 322° (NW) 2,764 8.1 -25.2°
Sets 05:02:08 0° 335° (NNW) 3,716 9.2 -25.4°
